NOAA 16 DEB, 41285

Orbit data source: Space-Track

NOAA 16 DEB, 41285 is space debris in LEO originally from a launch on Thu, 21 Sep 2000 UTC launched from the Air Force Western Test Range (AFWTR). Debris objects in space refer to the collection of defunct objects orbiting the Earth. Examples of debris include non-operational satellites, rocket bodies, and fragments generated from explosions, collisions, or faulty payload assembly.

Loading next visibility...
NOAA 16 DEB details
Identifier
41285, 2000-055GM
Orbit
LEO
Last TLE update2 days ago
Origin
Flag of USNOAA (US)
ManufacturerUnknown
MissionSpacecraft
Bus & MotorUnknown
MassUnknown
Launch date (UTC)
2000-09-21 (24 years ago)
Launch vehicleUnknown
Launch site
Air Force Western Test Range (AFWTR)
Object type
Payload
Rocket body
Debris
Shape & HBRUnknown
Radar Cross SectionSmall (<0.1 m²)

Expand to show TLE details & history

TLE from 2 days ago
0 NOAA 16 DEB
1 41285U 00055GM  24346.90837764  .00005963  00000-0  26759-2 0  9997
2 41285  98.7033  48.8953 0054351 174.0601 186.1232 14.22006210462830
Epoch: 2024-12-11T21:48Z
Definitive object data (Epoch: 2024-12-11T21:48:03.828Z)
Latitude-0.00008°
Longitude0.78305°
Altitude860.395 km
Speed7.402 km/s
True Right ascension03h 15m 34s
True Declination0° 00' 00"
Sunlit
Object was in full shadow at TLE epoch
Visualization TLE readout
Latitude55.00909°
Longitude-165.17095°
Altitude800.11 km
Speed7.473 km/s
Apparent Right ascension18h 28m 04s
Apparent Declination13° 00' 18"
Sunlit
Object is in daylight
Visualization observer readout
Local Sidereal Time08:20:40
Azimuth32.416° NE
Elevation-30.966°
Doppler factor1
Orbital elements
Apogee altitude854.831 km
Perigee altitude776.632 km
Semi-major axis7,193.868 km
Eccentricity0.0054351
Inclination98.7033°
RAAN48.8953°
Arg. of periapsis174.0601°
True anomaly186.05721°
Mean anomaly186.1232°
Eccentric anomaly186.09016°
Mean motion3.55713 °/min
BSTAR0.0026759
Orbital period101.21 mins
Loading maneuver chart data...
Loading historical data...
Loading historical data...
Loading historical data...
Loading historical data...
Loading historical data...
Loading historical data...
Loading historical data...

NOAA 16 DEB Visibility forecast

Observer location: undefined°, undefined

Span
Click to sort rows by Start time (UTC) header in descending order
Start Az.
Max El. time (UTC)
Max El. Az.
Max El.
End time (UTC)
End Az.
8 mins2024-12-13 16:36:50.072Z34.713° NE2024-12-13 16:40:50.072Z98.114° ESE31.121°2024-12-13 16:44:50.072Z161.356° S
6 mins2024-12-13 18:17:50.072Z337.63° N2024-12-13 18:20:50.072Z291.264° WNW23.375°2024-12-13 18:23:50.072Z247.655° W
9 mins2024-12-14 03:57:50.072Z148.323° SSE2024-12-14 04:01:50.072Z88.449° E40.624°2024-12-14 04:06:50.072Z355.503° N
5 mins2024-12-14 05:40:50.072Z246.186° WSW2024-12-14 05:42:50.072Z272.204° WNW16.322°2024-12-14 05:45:50.072Z306.695° NW
|